Regional Weather Roundup
Issued by NWS Tiyan, Guam

Home | Current Version | Previous Version | Text Only | Print | Product List | Glossary On
Versions: 1 2 3 4 5 6 7 8 9 10 11 12 13 14 15 16 17 18 19 20 21 22 23 24 25 26 27
000
ASGM40 PGUM 250012
RWRGUM
WEATHER ROUNDUP FOR THE MARIANAS
NATIONAL WEATHER SERVICE TIYAN GU
1000 AM CHST TUE JUL 25 2017

GUZ001>004-250100-
MARIANA ISLANDS-

CITY           SKY/WX    TMP DP  RH WIND       PRES   REMARKS
GUAM AIRPORT   SUNNY     86  77  74 S8        29.85F HX  97
ANDERSEN AFB   SUNNY     86  75  70 S12       29.86F HX  95
ROTA AIRPORT   MOSUNNY   84  77  79 S12       29.85S HX  94
TINIAN AP      MOSUNNY   86  77  74 S9        29.83R HX  97
SAIPAN AP      MOSUNNY   90  79  70 S10       29.84S HX 105

$$





USA.gov is the U.S. government's official web portal to all federal, state and local government web resources and services.